Weather History for Moline, IL

Change the Weather History Date:

Saturday, March 22, 2014

  Actual Average Record
Temperature  
Mean Temperature 33 °F 42 °F  
Max Temperature 41 °F 52 °F 78 °F (1910)
Min Temperature 24 °F 32 °F 0 °F (1888)
Degree Days  
Heating Degree Days 32 23  
Month to date heating degree days 775 614  
Since 1 July heating degree days 6445 5412  
Cooling Degree Days 0 0  
Month to date cooling degree days 0 0  
Year to date cooling degree days 0 0  
Moisture  
Dew Point 21 °F    
Average Humidity 54    
Maximum Humidity 75    
Minimum Humidity 32    
Precipitation  
Precipitation 0.00 in 0.09 in 2.16 in (1993)
Month to date precipitation 0.67 1.99  
Year to date precipitation 4.69 5.08  
Snow  
Snow 0.00 in 0.10 in - ()
Month to date snowfall 9.4 3.2  
Since 1 July snowfall 64.2 29.9  
Snow Depth 0.00 in    
Sea Level Pressure  
Sea Level Pressure 30.22 in    
Wind  
Wind Speed 15 mph (NW)    
Max Wind Speed 22 mph    
Max Gust Speed 29 mph    
Visibility 10 miles    
Events      
T = Trace of Precipitation, MM = Missing Value Source: NWS Daily Summary

Daily Weather History Graph

Daily Weather History Graph

Search for Another Location

Airport:

Trip Planner

Search our weather history database for the weather conditions in past years. The results will help you decide how hot, cold, wet, or windy it might be!

Date:

Astronomy

Mar. 22, 2014 Rise Set
Actual Time 7:01 AM CDT 7:16 PM CDT
Civil Twilight 6:34 AM CDT 7:44 PM CDT
Nautical Twilight 6:01 AM CDT 8:16 PM CDT
Astronomical Twilight 5:28 AM CDT 8:49 PM CDT
Moon 12:39 AM CDT (3/22) 10:42 AM CDT (3/22)
Length of Visible Light 13h 09m
Length of Day
12h 14m
Waning Gibbous, 65% of the Moon is Illuminated
Mar 22
Waning Gibbous
Mar 23
Last Quarter
Mar 30
New
Apr 7
First Quarter
Apr 15
Full

Hourly Weather History & Observations

Time (CDT) Temp. Windchill Dew Point Humidity Pressure Visibility Wind Dir Wind Speed Gust Speed Precip Events Conditions
12:12 AM 37.4 °F 28.9 °F 26.6 °F 65% 30.01 in 10.0 mi WNW 13.8 mph 28.8 mph N/A   Scattered Clouds
12:52 AM 36.0 °F 26.3 °F 26.1 °F 67% 30.03 in 10.0 mi WNW 16.1 mph 23.0 mph N/A   Clear
1:52 AM 34.0 °F 23.8 °F 26.1 °F 73% 30.06 in 10.0 mi WNW 16.1 mph 20.7 mph N/A   Clear
2:52 AM 34.0 °F 25.0 °F 27.0 °F 75% 30.07 in 10.0 mi WNW 12.7 mph 20.7 mph N/A   Mostly Cloudy
3:15 AM 35.6 °F 26.2 °F 26.6 °F 70% 30.07 in 10.0 mi WNW 15.0 mph 21.9 mph N/A   Overcast
3:52 AM 35.1 °F 26.4 °F 26.1 °F 70% 30.09 in 10.0 mi WNW 12.7 mph 18.4 mph N/A   Overcast
4:26 AM 35.6 °F 26.6 °F 26.6 °F 70% 30.08 in 10.0 mi NW 13.8 mph 23.0 mph N/A   Overcast
4:50 AM 35.6 °F 27.5 °F 26.6 °F 70% 30.10 in 10.0 mi NW 11.5 mph 19.6 mph N/A   Overcast
4:52 AM 35.1 °F 26.4 °F 26.1 °F 70% 30.11 in 10.0 mi NW 12.7 mph - N/A   Overcast
5:52 AM 35.1 °F 25.9 °F 26.1 °F 70% 30.14 in 10.0 mi WNW 13.8 mph - N/A   Overcast
6:52 AM 34.0 °F 25.5 °F 25.0 °F 70% 30.17 in 10.0 mi WNW 11.5 mph - N/A   Overcast
7:52 AM 33.1 °F 23.0 °F 24.1 °F 70% 30.21 in 10.0 mi NW 15.0 mph 23.0 mph N/A   Overcast
8:52 AM 33.1 °F 23.9 °F 24.1 °F 70% 30.22 in 10.0 mi WNW 12.7 mph - N/A   Overcast
9:52 AM 32.0 °F 20.5 °F 23.0 °F 69% 30.27 in 10.0 mi NW 18.4 mph 21.9 mph N/A   Overcast
10:52 AM 34.0 °F 25.0 °F 23.0 °F 64% 30.29 in 10.0 mi NW 12.7 mph - N/A   Overcast
11:52 AM 34.0 °F 23.8 °F 23.0 °F 64% 30.29 in 10.0 mi NW 16.1 mph - N/A   Overcast
12:52 PM 33.1 °F 23.9 °F 21.0 °F 61% 30.30 in 10.0 mi WNW 12.7 mph 20.7 mph N/A   Overcast
1:38 PM 35.6 °F 26.2 °F 19.4 °F 52% 30.28 in 10.0 mi NW 15.0 mph 21.9 mph N/A   Scattered Clouds
1:52 PM 37.0 °F 27.7 °F 19.9 °F 50% 30.29 in 10.0 mi NW 16.1 mph 20.7 mph N/A   Partly Cloudy
2:52 PM 39.9 °F 32.1 °F 18.0 °F 41% 30.27 in 10.0 mi NW 13.8 mph - N/A   Clear
3:52 PM 41.0 °F 32.8 °F 14.0 °F 33% 30.27 in 10.0 mi NNW 16.1 mph 25.3 mph N/A   Clear
4:52 PM 37.0 °F 26.2 °F 14.0 °F 39% 30.28 in 10.0 mi NW 21.9 mph - N/A   Clear
5:52 PM 36.0 °F 26.3 °F 15.1 °F 43% 30.31 in 10.0 mi NW 16.1 mph 27.6 mph N/A   Clear
6:52 PM 32.0 °F 20.1 °F 15.1 °F 50% 30.32 in 10.0 mi NW 19.6 mph 25.3 mph N/A   Clear
7:52 PM 30.0 °F 20.0 °F 15.1 °F 54% 30.33 in 10.0 mi NW 12.7 mph - N/A   Clear
8:52 PM 28.9 °F 17.7 °F 9.0 °F 43% 30.35 in 10.0 mi NNW 15.0 mph 23.0 mph N/A   Clear
9:52 PM 27.0 °F 13.5 °F 9.0 °F 47% 30.38 in 10.0 mi NNW 19.6 mph 25.3 mph N/A   Partly Cloudy
10:52 PM 26.1 °F 15.6 °F 10.0 °F 51% 30.40 in 10.0 mi NNW 11.5 mph 18.4 mph N/A   Mostly Cloudy
11:52 PM 25.0 °F 13.1 °F 10.0 °F 53% 30.42 in 10.0 mi North 13.8 mph 21.9 mph N/A   Scattered Clouds